Wind_Speed
23 23 25 28 27 23 20 19 19 18 19 20 20 22 23 24 26 27 25 25 26 27 26 25 25 25 23 23 25 26 26 27 26 25 23 20 17 17 17 17 15 14 15 15 14 15 17 17 15 13 11 10 8 8 8 8 8 9 8 8 8 6 5 5 5 5 4 4 4 4 4 5 6 6 6 6 7 7 7 8 8 9 10 10 10 11
25 26 28 27 24 21 19 19 20 21 22 22 23 23 24 27 30 27 25 25 25 25 25 23 24 25 24 25 27 27 27 25 24 21 19 19 18 18 18 17 16 16 17 18 18 18 19 19 16 12 10 9 9 10 10 10 10 11 11 10 9 8 7 7 6 7 7 7 6 6 5 6 6 6 7 8 8 9 9 9 11 12 12 13 14 14
27 30 29 24 22 23 23 24 24 24 25 24 24 26 28 30 30 26 23 22 20 21 21 21 24 25 24 27 28 27 26 23 20 18 17 18 19 19 18 17 17 18 18 19 19 19 19 18 16 12 10 10 11 12 12 13 13 13 13 12 11 10 9 9 8 8 8 8 7 7 6 5 5 6 7 8 9 9 10 11 12 13 14 15 16 16
29 28 25 20 20 21 22 23 24 25 26 26 26 27 29 29 27 24 21 20 19 21 23 23 26 27 27 28 28 26 24 20 17 16 17 18 18 18 18 19 20 20 20 20 20 19 19 17 15 12 11 12 13 14 15 15 16 16 16 15 14 13 12 11 10 10 9 8 8 6 5 5 4 4 5 6 7 9 10 11 13 14 15 16 16 17
31 29 26 24 23 22 22 23 24 25 25 25 26 28 29 28 25 24 22 21 22 24 25 24 25 28 28 26 24 22 20 18 17 17 18 18 18 18 19 21 22 22 22 21 20 19 18 17 15 13 13 13 14 15 16 17 17 17 17 16 15 14 13 12 11 11 10 9 8 7 6 5 3 3 4 5 7 9 10 11 12 14 15 15 16 17
31 29 29 29 27 27 27 28 28 26 25 26 27 27 27 25 23 22 20 19 21 21 21 18 14 15 14 12 13 14 14 15 16 17 17 17 18 19 20 21 22 23 22 21 20 19 19 18 15 14 14 15 16 17 17 18 18 18 17 17 16 15 14 12 11 11 11 10 9 9 8 7 6 6 6 7 8 10 11 12 13 14 15 16 17 18
31 28 28 27 26 26 27 28 29 27 25 26 26 24 21 18 16 16 16 16 15 13 12 10 8 11 12 9 11 13 14 14 16 16 17 18 19 20 21 21 22 23 23 22 21 21 21 19 16 16 16 16 17 18 19 19 19 18 18 17 16 15 14 13 13 12 12 11 10 10 9 8 8 7 7 8 10 11 12 13 14 15 16 18 18 19
28 25 24 23 23 25 26 26 26 25 24 24 25 22 18 16 14 14 15 15 15 16 15 13 15 19 20 16 17 18 18 18 18 18 18 19 21 21 21 21 21 22 23 22 22 23 22 19 18 17 17 18 19 19 20 20 20 19 18 18 17 16 15 14 14 14 13 12 11 10 9 8 7 8 8 10 11 12 13 14 16 17 19 20 21 22
24 21 19 18 18 21 21 21 21 22 23 23 23 21 18 16 15 15 15 14 15 16 15 16 17 16 16 15 14 15 17 16 17 17 18 19 20 21 21 20 20 21 21 22 23 23 22 20 18 18 18 19 20 21 21 22 21 20 19 17 17 16 15 15 15 15 15 14 13 11 10 9 9 9 10 12 12 14 15 17 19 21 22 24 25 25
23 22 19 17 17 18 16 15 17 19 19 20 20 19 18 16 14 14 14 14 14 12 12 16 16 12 12 12 9 11 13 12 11 13 14 16 18 20 20 20 20 20 21 22 23 22 20 19 19 19 20 21 22 23 23 23 22 20 19 18 17 16 16 16 16 16 16 16 14 13 12 12 12 13 14 16 17 18 21 23 25 27 28 28 29 29
25 24 22 20 18 16 14 14 16 17 17 18 18 16 14 13 13 13 13 12 10 8 8 12 15 15 8 4 3 9 8 4 6 8 11 15 18 19 20 19 19 20 20 21 22 21 20 19 20 20 22 23 24 25 24 24 23 22 20 19 18 17 17 17 17 17 17 17 16 15 16 16 17 18 20 22 24 27 29 31 32 32 32 32 31 31
26 24 23 23 20 17 16 15 16 17 18 18 17 15 12 8 8 10 10 9 6 4 4 5 11 18 14 4 4 7 7 5 4 7 11 14 17 18 19 19 19 18 19 20 20 20 19 20 21 22 24 25 26 26 26 25 24 23 21 20 19 18 18 18 18 18 19 19 19 19 20 21 23 25 27 30 33 35 36 37 36 36 35 34 33 32
23 23 22 22 21 20 19 17 17 18 19 19 18 16 10 2 2 4 4 4 6 7 8 8 9 15 23 21 14 10 9 10 12 10 10 12 15 17 18 18 18 18 18 20 20 20 20 21 23 24 25 27 27 28 27 26 25 24 23 22 21 20 19 19 19 20 20 20 21 23 25 27 30 32 35 37 39 41 41 40 39 37 36 34 33 32
17 17 21 24 23 22 23 23 20 19 19 21 22 19 12 4 2 3 3 2 6 8 9 11 10 12 19 20 17 17 17 17 16 14 12 13 15 17 19 19 20 21 22 22 22 22 21 21 24 25 27 28 29 29 29 28 27 25 24 24 23 22 21 21 21 20 21 22 25 27 31 34 36 38 40 42 42 43 42 41 39 38 36 34 32 30
11 10 15 20 21 20 22 23 21 19 16 17 21 21 18 12 7 4 3 3 3 5 7 8 7 7 8 10 10 10 9 10 13 13 13 15 18 20 23 25 26 26 25 23 22 22 21 23 25 26 28 29 30 30 30 28 27 26 25 25 25 24 24 23 22 22 24 27 30 34 37 39 41 42 43 43 42 41 40 38 38 37 36 35 34 32
12 12 12 14 16 15 16 18 21 22 17 14 18 22 22 21 15 8 5 7 6 6 7 9 11 16 20 25 25 19 17 18 17 18 19 20 22 24 27 27 25 22 20 20 21 21 23 24 26 28 29 31 31 31 30 29 28 27 27 27 27 26 25 24 25 27 29 33 36 40 42 43 44 44 43 42 40 39 37 36 35 35 34 35 34 34
12 12 12 13 15 14 14 15 19 23 20 16 20 24 23 22 19 12 8 9 6 6 9 10 16 26 29 31 31 25 24 24 21 22 22 21 22 24 25 23 19 17 18 20 23 24 26 27 29 30 31 31 31 30 30 29 29 29 29 29 28 27 27 28 30 32 35 39 42 44 45 45 44 43 42 41 40 39 37 36 35 34 33 33 33 33
14 11 11 12 14 15 16 16 19 23 23 20 21 23 21 17 17 14 6 3 2 3 8 11 19 28 25 22 25 23 21 21 19 19 19 19 20 21 22 20 19 21 24 26 27 29 30 31 31 31 31 31 31 31 30 30 30 29 29 29 28 29 30 32 35 38 41 44 45 45 45 44 44 43 43 42 41 40 39 38 37 36 35 34 34 34
18 14 13 14 15 15 17 19 19 22 25 26 23 20 17 12 12 14 9 3 3 2 5 12 20 28 27 23 25 24 22 21 18 17 17 16 18 20 21 22 22 24 26 27 28 30 31 31 30 30 31 31 31 31 30 30 29 28 28 28 29 31 34 37 40 43 44 45 44 44 44 44 44 44 44 43 43 42 41 40 39 38 38 37 37 36
20 15 12 15 18 18 20 23 23 24 25 28 27 23 20 15 11 16 15 9 5 3 6 10 14 22 25 19 18 21 24 22 17 15 15 15 17 20 20 21 21 22 23 23 24 26 28 29 30 30 31 32 31 30 29 29 28 29 29 31 33 36 38 41 44 45 45 44 44 44 44 44 44 43 43 43 42 41 40 39 38 38 37 37 36 36
23 20 15 15 18 20 23 24 25 26 26 27 29 27 26 24 18 15 17 18 12 4 3 5 9 22 25 16 16 21 21 18 17 17 18 17 19 20 20 20 21 21 22 23 25 26 27 29 30 31 32 32 31 29 28 28 29 30 32 35 38 41 43 44 44 44 43 43 44 44 44 43 43 43 42 41 41 40 39 38 37 37 36 36 35 35
24 24 23 21 22 25 26 26 25 26 26 27 28 29 29 29 25 14 11 21 22 13 10 5 6 25 32 23 23 25 19 17 21 23 22 21 22 23 23 22 22 22 23 25 27 28 29 31 32 32 32 31 29 27 28 29 31 33 37 39 42 43 44 43 42 42 42 42 42 43 42 42 42 42 41 40 39 39 38 37 36 36 36 35 34 34
24 25 25 26 27 26 25 25 25 24 26 27 27 28 29 29 30 22 12 16 20 20 21 11 6 27 41 35 34 32 27 28 29 27 26 25 25 24 22 21 21 23 24 25 27 29 31 33 33 33 31 28 28 28 30 33 36 39 41 41 42 41 40 40 39 40 40 41 42 41 41 41 40 40 39 38 37 37 36 35 35 35 34 34 33 33
23 25 25 23 23 23 23 25 26 24 25 28 30 33 33 31 33 30 25 23 18 19 18 6 5 27 37 34 34 32 29 31 30 29 29 27 25 22 21 22 23 24 25 26 28 30 33 34 33 31 29 29 30 32 36 39 41 41 40 39 38 38 38 38 38 39 39 40 40 40 39 39 38 37 36 35 34 34 33 33 33 33 33 33 33 33
24 26 24 16 9 11 15 17 22 26 28 31 33 35 35 35 34 32 33 29 21 21 19 7 11 27 31 32 35 31 29 31 29 29 29 27 25 25 25 27 27 26 24 24 25 27 28 29 29 29 30 33 36 38 40 41 40 39 37 36 37 37 37 37 37 37 37 37 38 37 36 36 35 33 32 31 32 32 32 32 32 33 33 33 34 36
25 27 28 20 11 9 10 10 18 28 32 34 36 36 35 36 36 34 35 30 19 16 22 22 25 29 33 37 36 31 32 33 28 27 28 27 27 27 27 27 26 24 21 20 21 23 25 27 29 32 34 37 39 39 38 38 37 37 36 36 36 36 36 36 35 35 36 36 36 36 35 33 32 31 30 30 31 32 32 32 33 33 34 36 37 39
28 29 31 30 28 26 23 19 19 23 26 29 32 34 35 35 37 37 35 31 24 17 23 36 38 33 37 41 35 31 33 32 29 29 28 27 26 25 26 27 25 24 22 23 25 27 28 30 32 34 37 39 39 37 36 36 37 36 35 35 35 34 34 34 35 35 36 36 36 35 33 31 30 30 30 31 32 32 33 33 34 36 38 40 41 42
31 32 34 36 36 36 34 31 27 25 25 27 27 29 31 32 34 38 36 34 32 23 25 39 40 34 41 44 36 33 34 31 29 29 28 28 27 26 27 27 26 25 26 29 33 34 33 32 33 36 38 39 38 36 36 37 37 36 34 34 33 34 34 34 35 36 36 36 35 33 31 30 30 31 31 32 33 33 35 36 38 40 42 43 43 44
33 34 37 37 36 37 37 36 35 34 32 33 32 33 35 34 34 38 38 38 37 32 33 41 39 38 45 43 35 35 36 32 30 31 32 32 30 28 28 28 29 31 35 39 41 40 37 34 34 36 38 39 38 38 39 39 37 35 34 33 34 35 35 35 35 35 35 34 33 31 30 29 30 32 33 33 34 36 38 40 42 43 43 44 44 44
30 32 33 33 35 36 37 37 37 38 38 39 42 43 45 43 41 41 41 40 39 39 42 43 41 44 48 43 39 39 38 35 35 36 37 36 34 34 34 36 39 41 42 43 41 39 37 35 33 35 38 39 39 40 41 39 37 35 35 35 35 36 35 35 35 34 33 32 31 29 29 29 31 33 34 36 38 40 42 43 43 43 43 42 42 42
30 32 31 32 34 34 38 39 38 39 41 43 47 50 48 45 45 44 42 38 37 39 41 41 41 47 48 44 43 43 40 39 39 39 40 39 38 38 39 41 43 42 41 39 37 36 34 33 33 34 36 37 39 40 41 39 37 36 36 36 36 36 35 34 34 33 32 31 30 29 29 30 32 35 38 40 42 43 44 43 42 40 40 39 39 39
29 31 31 31 29 31 38 38 38 41 42 44 52 53 49 46 46 45 41 38 39 41 40 40 44 48 48 46 46 46 43 41 39 38 38 38 37 38 39 40 40 38 36 34 33 33 32 32 32 32 32 34 36 38 39 38 38 38 38 37 35 34 33 33 33 31 31 30 30 30 31 33 36 39 42 43 43 43 42 40 38 38 37 38 38 38
27 28 30 30 26 30 36 36 37 36 29 35 52 55 50 50 49 44 41 41 42 42 41 42 46 47 45 42 42 41 39 36 35 34 34 34 35 35 36 35 34 33 32 32 32 33 32 32 31 30 31 32 34 35 36 37 38 39 37 36 34 32 32 32 31 31 31 31 32 33 35 37 40 42 43 43 42 40 39 37 36 36 37 38 39 39
27 28 30 31 27 27 33 35 31 21 16 29 47 48 44 44 41 38 39 41 42 43 43 44 43 41 37 35 34 33 33 33 33 34 33 34 33 32 32 32 32 32 32 33 33 33 32 32 31 30 31 32 33 35 36 37 38 37 35 34 32 31 30 30 30 31 32 33 35 37 39 41 42 42 41 40 39 37 36 36 36 37 38 39 40 41
30 30 31 33 30 24 26 26 15 9 21 36 40 36 36 36 33 34 37 39 40 41 41 41 39 35 33 33 33 33 34 34 34 33 33 32 32 32 32 32 32 33 33 34 33 33 33 32 32 32 32 33 34 35 36 37 36 35 34 32 31 30 30 30 31 33 35 37 39 40 41 41 40 39 38 38 37 36 36 36 37 38 39 40 42 42
33 33 33 34 31 21 17 20 13 10 21 30 29 31 35 34 31 33 36 38 40 40 39 37 33 32 33 32 31 31 30 30 30 29 30 30 30 31 31 31 32 32 33 33 33 33 33 33 34 34 34 35 36 37 37 36 35 33 32 30 30 30 31 32 34 36 37 39 39 39 39 38 37 37 37 37 36 36 37 37 38 39 41 42 42 43
34 34 35 34 32 25 19 22 23 19 20 27 32 34 37 36 33 32 35 39 40 39 38 34 31 32 32 29 27 26 25 26 28 28 28 28 28 28 28 29 30 30 31 31 32 32 33 34 34 35 36 37 37 37 36 34 32 31 30 29 30 32 33 35 37 38 38 37 37 36 36 36 36 36 36 36 36 37 37 38 39 40 41 42 42 42
35 35 36 33 30 29 23 16 13 12 17 30 38 37 37 37 34 33 34 37 40 40 38 36 33 31 28 24 23 23 23 26 28 26 24 24 25 27 28 29 30 30 30 31 32 33 33 34 34 35 36 37 36 34 31 30 29 29 30 32 34 35 37 38 37 36 36 35 35 34 34 35 36 36 36 36 36 37 38 39 40 41 41 41 41 41
35 36 39 35 28 28 25 15 9 11 18 28 34 33 32 33 34 30 25 29 37 38 33 30 27 23 20 19 19 20 21 25 27 24 22 24 28 29 30 30 30 30 30 31 31 32 32 33 34 34 34 33 32 29 28 27 28 30 31 33 35 36 36 35 34 34 33 33 33 33 34 34 35 35 36 36 37 38 38 39 40 41 41 41 42 42
36 37 38 37 32 30 28 20 15 20 25 30 33 33 33 34 31 20 12 18 29 30 26 24 22 20 19 20 21 22 23 26 27 26 26 29 31 31 30 30 29 29 30 30 30 30 31 32 32 31 31 30 29 27 27 27 29 30 31 32 32 33 33 32 32 32 31 31 32 33 33 34 35 35 36 37 37 38 39 40 40 41 41 42 43 43
35 36 35 36 35 33 29 22 19 24 31 35 36 35 35 32 22 16 19 26 28 26 26 27 26 24 24 24 25 26 27 28 30 31 31 31 30 30 29 29 28 28 28 28 28 29 30 31 31 31 30 29 28 27 27 28 29 29 30 30 30 30 30 31 31 31 31 31 31 32 33 34 35 36 36 37 38 39 39 40 41 41 42 42 42 42
35 33 29 31 33 31 29 25 20 25 35 39 36 35 34 30 25 27 35 35 29 27 27 26 26 26 25 26 28 31 32 33 32 32 32 31 30 29 29 28 28 28 27 27 28 29 30 31 31 31 31 30 29 28 28 29 29 29 28 28 28 28 29 30 31 31 31 31 31 32 34 35 36 37 37 38 39 39 40 40 41 41 41 42 41 40
34 28 23 26 29 26 26 22 15 21 34 37 32 33 33 29 27 27 27 23 21 22 21 20 22 24 26 29 32 34 35 34 33 32 33 33 32 31 30 30 29 28 27 28 29 30 31 32 32 32 32 31 31 31 31 31 30 29 27 27 27 28 29 30 30 31 31 31 32 33 34 36 37 38 39 39 39 39 39 40 40 40 40 39 38 37
27 26 24 27 28 25 24 24 22 28 33 31 29 29 24 19 18 17 16 16 18 19 20 22 25 27 30 33 34 35 35 35 34 34 34 34 33 32 32 31 30 29 29 29 30 31 33 33 33 32 32 32 32 33 32 32 31 29 28 27 28 29 30 31 31 31 31 32 32 34 35 37 38 39 39 40 39 39 39 38 38 38 37 36 36 35
23 26 28 30 32 30 31 32 34 35 34 32 32 28 21 17 18 19 20 21 21 22 24 26 28 30 33 34 35 34 34 33 33 34 33 33 33 32 32 31 31 30 31 31 32 33 34 34 34 33 34 34 34 34 33 32 32 30 29 29 30 30 31 32 33 33 33 33 34 35 37 38 39 40 40 40 40 39 38 38 37 36 35 34 34 35
25 27 29 31 33 34 35 38 39 39 39 38 35 29 25 24 24 23 23 23 22 24 25 27 30 32 33 34 34 33 32 32 33 32 32 33 33 33 33 33 32 32 32 32 33 34 34 34 35 35 35 35 35 34 34 33 33 31 30 31 32 32 33 34 34 34 34 35 35 37 38 39 40 41 41 40 39 38 37 37 36 35 34 34 35 36
29 28 30 32 34 34 36 39 38 36 34 33 30 27 26 25 24 23 23 22 22 24 27 29 31 32 32 32 32 31 31 31 32 32 33 33 34 35 35 35 34 34 33 33 34 34 35 35 36 37 37 36 35 34 34 34 34 33 33 33 34 34 35 35 35 35 35 36 37 38 39 40 41 41 41 40 39 38 37 36 35 34 34 35 36 38
29 28 31 34 36 36 38 39 36 32 30 29 29 28 26 24 23 22 21 21 23 25 27 29 29 30 31 31 30 30 31 32 32 33 33 34 35 36 37 37 37 35 34 34 35 36 36 36 36 36 37 36 35 35 35 36 35 35 35 36 36 36 36 36 36 36 36 37 38 39 40 41 41 41 40 39 38 37 37 36 36 35 35 37 39 40
29 29 33 35 36 38 40 40 37 35 34 33 30 29 26 23 21 21 21 22 24 25 27 28 29 30 30 30 30 31 32 33 34 34 34 35 36 36 37 38 38 38 37 36 36 38 39 38 36 36 36 35 35 36 37 38 37 37 38 39 38 38 38 37 37 37 37 38 39 40 41 41 41 41 40 38 38 37 36 36 36 36 37 38 40 42
32 34 36 38 40 42 42 39 35 33 32 30 28 27 26 23 23 23 23 23 24 26 28 29 30 30 30 30 31 33 34 35 35 35 36 36 36 35 37 38 38 39 39 39 40 41 42 41 38 37 36 35 35 37 39 39 39 40 40 39 38 39 39 39 38 38 38 39 40 40 41 42 42 41 40 38 38 37 36 36 37 38 39 40 41 43
34 35 37 39 42 42 39 35 32 30 30 30 29 28 28 27 26 25 24 24 26 28 29 29 30 31 32 32 33 34 36 37 37 37 38 36 34 34 35 36 37 39 40 40 42 43 43 41 39 37 36 36 37 39 40 41 41 41 40 38 37 38 39 39 40 40 40 40 41 41 42 42 42 42 40 39 38 38 37 37 37 39 40 42 43 45
Wind_Direction
262 257 257 263 271 276 280 280 281 282 279 273 270 269 269 268 268 275 280 281 283 282 279 278 276 276 274 271 270 268 268 269 271 275 277 279 279 280 282 285 282 267 263 272 285 297 304 305 304 301 300 300 292 281 276 268 255 247 245 245 246 248 256 266 271 280 287 293 305 315 322 328 334 340 341 342 346 348 350 352 352 352 351 347 342 335
259 255 262 272 278 278 274 273 274 274 271 268 265 265 265 266 271 279 282 281 282 281 280 278 275 273 271 269 267 267 267 268 270 271 271 272 274 280 283 284 281 271 266 269 276 286 296 302 305 301 295 288 277 274 273 266 254 247 246 247 250 253 263 273 280 291 299 303 309 314 322 331 334 339 340 341 344 345 347 349 351 351 350 348 345 343
254 258 270 277 275 272 270 269 268 267 265 263 262 262 263 267 273 279 282 282 281 280 281 280 276 273 270 267 266 267 268 266 264 263 262 264 271 278 284 284 282 277 271 270 273 280 288 296 301 296 286 278 271 270 269 264 256 250 249 251 254 260 268 277 285 293 299 303 305 307 311 319 326 334 339 341 342 344 346 347 347 346 343 340 338 336
253 264 275 273 267 266 265 264 262 260 258 257 258 259 263 269 275 278 282 284 283 283 283 282 280 275 270 267 266 267 268 263 257 254 255 260 267 274 280 283 283 280 275 273 274 279 287 295 297 288 277 271 266 264 262 259 255 252 251 254 258 264 271 278 284 289 293 297 296 294 294 300 319 334 337 339 342 342 341 340 338 336 334 332 330 327
259 267 270 265 262 261 260 260 258 256 255 256 259 260 266 272 276 279 282 283 283 283 282 283 285 280 274 269 266 264 262 258 252 250 251 254 259 267 276 281 281 280 278 277 278 283 290 296 294 282 271 263 260 258 256 254 252 252 253 256 261 266 271 276 279 281 282 284 283 280 279 279 284 299 315 329 334 332 330 328 327 325 324 323 321 320
261 264 264 263 262 260 258 257 256 256 258 260 262 265 269 274 276 276 278 280 283 284 282 282 283 283 276 265 260 255 251 249 247 247 248 249 256 265 272 274 274 276 279 280 282 286 291 295 289 276 264 258 255 252 251 249 248 249 251 255 259 264 268 271 273 274 273 271 269 267 265 264 269 285 306 317 319 318 320 320 319 319 318 318 317 315
260 261 261 261 260 256 254 253 253 253 256 260 263 266 270 274 273 272 274 277 278 282 285 277 266 275 275 259 254 257 254 251 250 251 250 252 259 266 268 267 267 270 275 278 283 287 291 291 283 271 260 254 251 249 247 246 246 246 249 253 257 260 263 266 267 266 265 262 259 258 258 263 274 289 301 307 309 312 314 315 315 318 318 318 317 315
260 261 259 257 253 251 249 249 251 250 251 256 260 263 267 273 274 273 275 276 273 274 273 268 268 275 277 265 257 259 260 260 260 258 257 259 263 266 266 265 265 267 270 275 280 284 287 285 277 266 258 252 248 246 245 245 244 244 246 250 254 257 260 261 262 260 258 255 252 251 254 262 276 289 296 300 304 306 308 310 313 315 316 316 315 315
261 259 255 251 244 245 248 250 252 250 249 253 258 262 268 274 274 271 273 276 280 276 267 263 265 270 276 270 258 254 254 259 263 261 260 262 263 263 262 262 263 265 269 273 277 280 282 278 269 261 255 251 248 246 245 243 243 243 244 247 251 256 259 261 261 258 254 250 246 245 250 261 275 286 292 296 299 302 306 309 312 313 313 313 313 312
254 251 250 247 241 243 246 245 244 244 246 249 253 258 265 271 271 271 273 275 279 273 262 266 263 257 275 277 248 239 250 255 256 255 255 255 254 255 256 258 260 263 267 271 275 277 276 270 262 257 253 251 248 246 245 245 244 244 246 248 252 257 260 262 260 257 252 248 245 246 256 268 279 288 294 298 301 304 307 308 310 310 311 311 311 310
246 247 246 243 242 239 235 230 230 231 234 238 242 249 259 268 271 273 272 271 279 272 258 266 255 242 264 322 198 218 233 219 222 243 251 249 248 249 253 254 256 261 265 269 272 272 269 263 257 254 251 249 248 247 246 247 247 248 249 250 254 257 259 260 258 256 253 250 250 257 267 277 285 291 294 298 301 304 306 307 309 310 310 310 309 308
241 241 241 241 239 234 229 227 225 226 226 228 233 238 247 264 273 270 261 252 254 257 251 260 242 231 229 218 146 170 164 157 225 256 254 249 248 249 251 251 253 257 262 266 268 267 263 258 253 251 250 249 248 248 249 250 250 250 251 253 255 257 259 260 259 258 257 257 262 270 277 284 288 292 296 300 303 306 308 309 310 311 311 310 310 309
243 239 238 238 237 233 230 227 224 227 226 224 227 225 223 246 315 267 242 226 236 248 258 254 237 234 239 244 244 233 234 256 269 268 258 256 257 254 250 249 251 257 262 266 267 265 261 256 252 250 249 250 250 251 251 251 252 252 253 256 258 262 264 264 264 264 264 267 274 281 287 292 296 299 302 305 307 309 310 312 313 313 313 312 311 309
246 244 237 235 237 234 230 228 228 229 227 225 223 216 202 159 71 260 252 278 262 257 260 250 243 254 256 256 257 255 258 270 274 271 262 257 257 255 251 250 254 261 267 270 268 266 262 257 254 251 250 251 252 252 252 252 253 254 256 259 263 266 269 270 269 269 273 279 286 293 297 301 303 304 306 307 308 309 310 311 313 314 314 314 313 310
237 245 237 231 234 235 234 234 235 237 236 231 226 220 214 204 197 219 212 207 257 285 273 238 227 248 260 272 279 269 266 275 277 271 263 259 258 256 255 257 263 269 272 271 267 266 264 259 256 255 253 253 252 252 252 252 254 256 259 263 267 271 273 273 274 276 282 289 295 300 303 304 305 305 306 307 308 309 310 310 311 311 311 311 311 309
231 243 243 232 232 234 236 236 233 232 233 230 222 218 221 222 223 236 249 245 270 309 277 227 231 257 272 279 279 277 277 276 274 271 268 266 264 260 261 264 267 271 273 272 270 269 268 264 260 258 255 253 251 251 252 254 257 260 264 267 271 273 275 276 280 284 290 295 300 302 304 305 306 307 308 308 309 310 311 311 311 310 310 309 308 308
231 244 246 239 236 231 229 229 226 226 227 222 216 218 224 227 228 237 264 270 270 288 270 245 254 268 276 279 277 275 277 276 275 276 272 266 261 259 260 262 267 277 283 282 279 275 271 265 261 257 254 252 251 252 254 256 259 262 266 270 273 276 279 283 287 291 295 299 302 303 304 305 306 308 309 310 312 313 313 314 313 313 311 310 309 309
234 240 244 239 236 232 229 226 221 222 225 222 221 224 227 228 229 230 247 292 237 252 269 257 264 273 273 274 279 281 282 280 279 279 274 266 260 255 254 260 275 285 287 283 278 274 270 264 259 255 253 253 253 254 255 257 260 263 267 272 276 281 285 288 292 296 299 302 303 304 305 307 309 310 312 313 314 315 316 316 316 315 314 313 311 309
233 237 241 234 231 232 229 225 218 218 222 225 230 230 223 216 213 211 211 244 233 223 273 265 270 275 270 268 279 286 288 289 284 278 275 268 260 257 260 270 279 281 279 276 273 270 266 261 256 254 253 253 253 254 256 259 262 267 272 276 281 285 289 293 297 300 302 304 305 306 307 308 309 310 311 311 312 313 313 313 313 312 311 310 308 307
230 234 237 228 229 231 225 222 219 219 219 223 227 228 226 224 211 206 210 218 219 215 264 272 275 276 276 278 285 289 292 292 286 281 280 272 266 267 272 277 278 277 275 271 269 267 262 257 254 253 253 252 253 254 257 262 267 272 278 283 288 292 296 300 302 303 304 305 305 306 307 307 308 308 308 309 309 309 309 309 308 306 305 304 303 302
228 231 234 227 223 223 224 228 231 233 231 228 227 225 225 226 221 225 233 234 229 213 241 261 267 271 278 289 291 289 290 287 284 287 284 277 275 278 280 279 277 276 275 272 269 263 255 252 251 251 250 250 251 254 260 266 272 278 285 291 296 299 302 302 302 302 302 302 303 303 304 305 306 306 306 306 306 305 305 304 303 302 301 300 299 298
225 230 235 232 226 227 234 240 241 240 240 240 241 240 238 235 230 229 242 239 232 225 231 228 262 269 272 279 283 284 286 285 287 288 285 283 283 283 281 280 277 275 275 271 264 255 248 247 247 246 246 246 250 257 265 272 280 286 291 294 297 298 298 297 297 297 298 299 299 300 301 302 302 302 302 302 302 301 301 300 300 300 300 299 298 298
231 232 236 237 238 242 245 244 239 235 235 238 242 247 248 245 237 228 230 242 235 232 239 235 255 269 270 273 276 277 280 283 284 285 288 288 285 282 280 279 278 276 272 264 254 247 243 242 242 242 245 249 256 264 272 281 288 291 292 293 294 293 292 293 294 295 296 297 298 300 301 301 301 301 301 300 300 300 300 300 300 300 299 299 298 298
227 229 233 238 245 247 243 241 239 235 234 234 238 242 242 242 242 239 242 248 245 238 235 206 245 265 269 274 275 277 279 281 284 286 288 285 281 282 283 282 281 276 265 255 248 244 241 241 243 246 252 258 265 274 282 288 290 290 291 292 292 292 293 294 295 295 296 297 299 300 300 300 300 299 299 298 298 299 299 299 298 297 296 296 296 296
225 226 227 227 239 245 238 237 235 232 231 233 237 239 240 241 243 244 246 247 249 247 239 218 248 260 267 273 274 277 280 282 284 283 280 279 282 288 288 284 279 269 256 246 244 244 246 249 253 257 263 269 276 284 288 288 288 289 291 292 292 293 293 294 294 295 297 298 299 299 299 298 297 296 296 295 295 296 296 296 295 293 293 293 294 294
230 229 227 220 214 223 224 223 230 233 232 233 237 239 240 242 242 243 245 242 240 243 239 241 252 259 266 271 272 275 278 279 276 275 279 284 289 289 284 278 269 257 245 241 247 254 259 263 264 267 272 276 280 285 286 285 287 289 290 290 290 291 292 292 294 296 296 297 297 297 296 295 294 293 291 291 292 293 293 293 292 293 293 294 294 294
229 229 229 229 230 233 237 241 244 245 239 237 242 245 244 244 244 245 243 239 238 239 241 249 257 261 266 269 270 270 272 273 273 279 288 291 288 283 276 267 256 247 245 251 261 267 270 272 271 270 271 273 277 282 284 284 285 287 287 288 288 288 289 291 293 294 295 295 295 294 293 292 290 288 288 289 291 292 292 292 293 294 294 295 294 294
231 232 234 236 239 243 248 253 256 256 252 249 250 251 248 246 244 243 241 243 247 244 247 257 261 263 267 269 268 269 272 276 281 287 291 288 283 276 267 257 250 250 257 266 274 277 278 276 272 266 265 269 275 280 280 281 284 285 285 285 285 287 289 290 292 292 293 293 292 291 290 288 286 286 287 289 290 290 291 292 293 294 293 293 292 292
237 241 243 245 249 252 253 253 254 254 255 255 254 254 252 249 247 248 250 254 255 250 256 264 265 264 268 269 267 269 273 278 282 285 285 283 279 270 263 259 259 264 269 274 278 279 278 274 267 262 263 267 272 274 276 280 283 283 283 283 284 287 289 290 291 291 290 289 289 288 286 285 285 285 287 289 289 290 291 292 292 292 291 291 290 290
236 241 246 247 249 252 252 250 251 253 254 255 255 256 257 256 257 259 260 261 259 256 260 264 263 262 265 266 266 270 275 279 282 283 283 280 276 271 268 269 270 272 273 274 275 275 274 269 261 257 258 262 265 269 274 279 280 280 281 283 285 289 290 290 290 288 287 286 286 285 285 284 284 285 287 288 289 290 291 291 291 290 290 289 289 289
234 239 245 247 247 251 253 252 252 253 255 258 258 258 258 259 260 260 259 258 257 258 261 261 260 262 263 265 270 276 282 285 283 280 279 277 275 273 273 273 275 275 274 274 273 272 270 268 264 260 258 258 261 266 272 275 277 279 282 285 288 290 290 288 287 286 286 285 285 284 284 283 283 284 286 288 289 290 290 290 289 289 289 289 289 290
237 240 245 248 248 252 256 256 255 255 257 258 258 256 255 257 258 257 257 258 259 261 263 261 261 265 268 271 276 280 282 281 278 276 275 274 274 274 274 275 275 274 274 273 272 271 270 270 269 266 262 260 261 265 270 273 276 279 283 286 289 289 287 286 287 286 285 285 284 283 282 283 284 285 287 288 289 289 289 289 288 288 289 290 291 292
246 247 249 250 246 250 257 259 255 253 253 253 254 255 255 256 257 257 258 263 265 264 264 263 265 271 276 278 279 279 279 277 275 275 275 274 273 273 273 273 272 272 273 272 272 272 273 273 272 270 268 266 265 268 270 274 277 280 284 287 287 286 285 286 286 285 284 283 283 283 283 285 286 287 287 288 288 288 289 288 289 290 291 292 293 294
253 253 254 252 244 247 254 252 246 237 231 245 253 257 258 257 256 257 260 266 269 267 266 269 272 276 278 278 278 279 278 278 277 277 276 275 274 274 273 273 272 273 274 274 275 276 276 277 276 275 273 272 271 272 274 276 279 282 285 286 286 285 285 284 282 281 281 282 282 284 285 286 286 286 287 287 288 288 289 290 291 292 293 294 295 296
254 254 253 247 238 239 240 232 225 220 232 243 251 254 257 260 261 264 267 271 271 271 272 273 274 276 277 279 280 280 278 277 277 277 276 274 274 274 273 273 274 275 276 276 278 279 279 279 279 278 277 277 277 278 278 280 282 284 285 286 285 284 282 280 278 278 280 282 284 285 285 285 285 286 287 288 289 290 291 293 294 295 295 296 297 298
252 252 250 241 234 230 209 196 205 242 242 245 252 254 258 264 268 269 271 272 274 277 278 276 275 279 282 283 281 278 277 275 274 274 274 273 273 273 273 273 275 275 276 277 278 279 279 280 280 280 280 280 280 280 281 283 284 285 285 284 282 280 278 277 277 278 280 282 283 283 283 284 285 285 286 288 290 292 293 295 296 296 297 298 300 301
249 248 247 238 229 224 206 202 223 246 254 255 258 262 267 271 272 272 273 276 279 280 277 277 282 285 285 283 279 276 274 272 273 276 276 274 274 273 273 274 274 275 276 278 279 280 280 281 281 280 280 280 280 281 282 284 285 285 284 282 280 279 278 278 279 280 280 280 280 280 281 282 283 285 286 288 290 292 294 295 296 297 298 300 301 302
249 246 243 235 225 224 222 219 230 246 257 257 259 265 272 273 274 275 273 274 277 278 279 283 286 285 283 279 275 273 270 268 274 281 281 275 273 274 275 276 276 278 280 281 281 281 280 280 279 279 279 279 280 282 284 284 283 282 280 279 278 278 278 279 279 279 278 278 278 279 280 281 282 284 286 288 290 292 294 296 297 298 300 301 302 302
245 242 237 231 224 222 223 222 225 234 249 258 263 269 273 273 274 274 271 274 278 280 284 286 284 284 283 278 273 270 268 269 276 283 280 275 275 278 279 280 281 282 282 282 281 280 278 277 277 278 279 280 282 284 283 280 279 278 278 278 277 277 277 278 278 278 278 278 279 280 281 282 283 285 287 289 291 293 295 296 297 299 301 301 301 301
234 232 227 224 225 226 224 225 232 238 249 262 266 268 272 274 274 270 265 276 281 284 289 289 287 287 284 279 277 276 274 276 280 282 280 280 283 284 282 282 283 283 282 280 278 277 276 276 277 279 281 282 283 282 281 280 282 283 283 281 280 278 277 277 278 279 280 281 281 282 283 284 285 286 288 290 292 293 295 297 298 300 300 301 301 301
225 225 224 223 226 227 225 230 241 245 252 261 264 267 271 270 260 251 262 274 281 287 290 289 287 285 282 281 282 281 281 283 284 285 285 286 286 285 283 283 283 282 280 278 276 275 276 277 279 281 282 284 283 283 284 286 288 289 287 285 282 281 279 279 280 281 282 283 284 285 285 286 287 288 289 291 292 294 295 297 298 300 300 301 301 301
222 221 221 222 225 227 232 242 252 253 259 266 266 263 264 259 253 264 276 282 286 286 283 280 279 281 284 285 285 285 286 287 287 288 288 287 285 284 285 285 283 281 278 276 275 275 277 279 281 282 284 286 286 288 289 291 292 292 289 287 286 285 284 283 284 284 285 286 287 287 288 288 288 289 291 291 292 294 295 297 299 300 301 301 301 301
229 224 220 223 229 233 235 238 246 258 268 275 269 260 261 264 270 279 283 283 281 279 276 276 278 281 284 284 284 285 285 285 286 288 287 287 288 289 290 288 285 282 279 276 276 277 279 281 282 284 286 287 288 290 293 294 294 292 291 291 291 291 290 290 289 288 288 288 288 289 289 289 290 290 291 291 292 294 296 298 299 300 301 301 301 301
225 223 227 235 239 236 230 235 253 270 279 285 278 270 273 278 281 281 275 270 274 278 278 281 282 282 282 282 282 281 281 282 285 286 288 290 292 293 293 290 286 283 280 279 278 279 280 282 284 286 287 288 289 291 293 293 292 292 293 295 297 297 297 297 296 293 291 290 290 290 290 290 291 291 291 292 293 295 297 298 299 300 300 300 300 299
230 237 246 253 253 252 252 259 269 276 280 279 275 276 281 283 280 278 275 276 280 280 280 281 281 280 280 279 279 279 280 283 286 287 289 291 291 291 291 288 285 282 280 279 279 279 281 283 285 287 287 288 289 290 291 292 292 294 296 298 299 299 299 298 297 295 293 292 292 291 291 291 291 291 292 293 294 295 297 297 297 298 299 298 298 298
251 253 257 260 260 262 265 268 270 271 273 273 273 275 278 279 279 279 279 281 282 280 278 278 277 276 276 275 276 279 282 285 286 288 289 289 290 290 289 286 283 281 278 278 278 279 282 284 285 286 287 288 288 288 290 292 293 295 298 299 299 298 297 296 295 293 292 292 292 291 291 291 291 291 292 292 293 295 296 295 295 296 296 296 296 297
258 257 257 258 260 261 264 267 269 270 271 272 274 275 276 278 281 283 283 283 279 275 273 273 273 273 273 274 277 279 282 284 286 287 288 289 291 291 288 285 282 278 276 276 278 280 282 283 285 287 288 288 288 288 291 293 295 296 297 298 297 297 296 295 293 292 291 291 290 290 290 290 290 291 291 292 293 294 294 294 294 295 295 296 296 298
258 258 257 258 260 261 263 266 268 268 269 272 276 279 283 286 287 286 283 277 270 268 268 269 271 272 274 276 277 278 280 282 284 286 288 289 289 288 287 285 282 278 274 274 276 278 280 282 283 285 285 286 287 288 290 292 294 295 295 295 296 296 295 294 292 291 290 289 289 289 289 289 290 290 291 291 292 293 293 293 293 294 295 296 298 299
256 256 257 259 261 261 262 263 264 267 273 278 282 286 289 289 286 283 278 271 267 266 267 269 271 272 273 274 275 276 278 281 284 286 286 286 287 287 286 284 282 278 274 273 274 276 278 280 282 282 282 283 283 284 287 290 292 292 292 294 295 296 295 295 293 291 290 289 289 289 289 290 290 290 290 290 290 291 291 292 293 294 296 297 299 300
253 256 259 259 260 262 264 267 270 275 279 283 286 288 288 286 284 281 275 267 263 263 266 269 271 271 272 274 275 275 277 280 283 284 284 286 288 288 286 283 281 278 276 273 273 274 277 280 282 282 280 280 280 281 284 287 289 290 292 294 295 295 295 295 294 293 292 290 290 290 290 290 291 290 290 289 289 289 290 291 293 295 296 298 299 301
256 260 263 264 265 269 273 277 280 281 283 284 285 285 285 286 285 279 269 260 259 261 265 269 271 272 272 273 273 272 274 278 282 283 285 287 289 288 287 285 282 280 278 276 276 277 279 281 282 282 280 278 279 280 283 286 288 291 294 296 295 294 295 295 295 294 293 292 292 291 291 291 291 290 289 288 288 289 290 291 293 295 298 299 300 301
Height
3144 3144 3144 3143 3143 3145 3147 3147 3147 3147 3147 3147 3146 3146 3146 3145 3144 3145 3146 3146 3145 3142 3141 3142 3141 3140 3141 3140 3139 3139 3138 3138 3138 3139 3139 3140 3140 3140 3141 3141 3140 3140 3140 3139 3138 3138 3138 3138 3138 3138 3138 3138 3138 3138 3138 3137 3137 3137 3138 3137 3137 3137 3137 3137 3137 3137 3136 3136 3136 3135 3135 3134 3134 3134 3134 3134 3134 3134 3134 3134 3134 3134 3134 3134 3134 3134
3141 3139 3140 3142 3143 3144 3145 3145 3144 3144 3144 3144 3143 3143 3143 3142 3141 3143 3144 3143 3142 3139 3138 3139 3138 3137 3138 3137 3136 3135 3135 3136 3136 3137 3137 3138 3137 3137 3138 3138 3138 3138 3138 3137 3137 3136 3136 3136 3135 3136 3136 3136 3136 3136 3136 3136 3136 3136 3136 3136 3136 3136 3136 3136 3135 3135 3135 3135 3135 3135 3134 3134 3133 3133 3133 3133 3132 3132 3132 3132 3132 3132 3132 3133 3133 3133
3136 3135 3138 3141 3142 3141 3142 3142 3142 3141 3141 3141 3141 3140 3139 3139 3139 3140 3141 3140 3139 3137 3136 3136 3134 3134 3135 3133 3132 3132 3133 3134 3134 3135 3135 3135 3135 3135 3135 3136 3136 3136 3136 3135 3135 3135 3134 3134 3134 3134 3134 3135 3134 3134 3134 3134 3134 3134 3135 3135 3135 3134 3134 3134 3134 3134 3134 3134 3134 3133 3133 3133 3132 3132 3132 3131 3131 3131 3131 3131 3131 3131 3131 3131 3131 3130
3132 3133 3137 3139 3138 3138 3138 3138 3138 3138 3137 3137 3138 3137 3136 3137 3138 3138 3138 3138 3137 3135 3134 3133 3131 3131 3131 3129 3128 3129 3130 3131 3132 3132 3132 3132 3132 3133 3133 3133 3133 3133 3133 3133 3133 3133 3132 3132 3132 3133 3133 3133 3133 3132 3132 3132 3132 3132 3132 3132 3133 3133 3133 3132 3132 3132 3132 3132 3132 3132 3132 3132 3131 3131 3130 3130 3130 3130 3130 3129 3129 3129 3129 3129 3129 3129
3129 3132 3134 3135 3135 3136 3135 3135 3135 3135 3134 3135 3135 3134 3133 3135 3136 3136 3136 3136 3134 3133 3132 3132 3129 3125 3125 3125 3125 3126 3127 3128 3129 3129 3130 3130 3131 3131 3131 3131 3131 3130 3131 3131 3131 3131 3131 3131 3131 3131 3131 3131 3131 3130 3130 3130 3129 3129 3130 3130 3130 3130 3130 3130 3130 3131 3131 3131 3131 3131 3131 3130 3130 3130 3129 3129 3128 3128 3128 3128 3128 3128 3128 3128 3127 3127
3126 3130 3130 3130 3132 3132 3132 3132 3132 3132 3132 3133 3132 3132 3132 3133 3134 3134 3135 3134 3132 3131 3130 3131 3128 3121 3120 3123 3123 3124 3125 3126 3126 3126 3127 3128 3129 3129 3129 3129 3129 3128 3128 3129 3129 3129 3129 3129 3129 3129 3129 3129 3129 3128 3128 3128 3128 3128 3128 3128 3128 3128 3128 3128 3128 3129 3129 3129 3129 3129 3129 3129 3128 3128 3127 3127 3127 3127 3127 3126 3126 3126 3126 3126 3126 3125
3123 3126 3126 3127 3128 3128 3129 3128 3128 3130 3130 3130 3130 3130 3131 3131 3132 3132 3133 3133 3131 3130 3129 3130 3129 3121 3118 3122 3123 3123 3124 3124 3124 3125 3125 3126 3126 3126 3126 3126 3126 3126 3127 3127 3127 3128 3128 3127 3127 3127 3127 3127 3127 3127 3127 3126 3126 3126 3126 3126 3126 3126 3126 3126 3126 3127 3127 3127 3127 3127 3127 3127 3126 3126 3126 3126 3126 3125 3125 3124 3124 3124 3124 3124 3124 3123
3119 3123 3123 3123 3124 3124 3124 3124 3125 3127 3128 3127 3127 3128 3129 3130 3131 3131 3131 3131 3129 3129 3128 3129 3129 3122 3115 3118 3121 3122 3123 3123 3123 3123 3123 3124 3124 3124 3124 3123 3124 3124 3125 3125 3126 3126 3126 3125 3125 3125 3125 3125 3126 3126 3126 3125 3125 3125 3125 3124 3124 3124 3124 3125 3125 3125 3125 3124 3124 3124 3125 3125 3125 3125 3125 3124 3124 3123 3123 3122 3122 3122 3122 3122 3121 3121
3118 3119 3119 3120 3120 3120 3120 3121 3123 3125 3125 3125 3126 3126 3127 3128 3129 3129 3129 3129 3128 3127 3126 3126 3128 3123 3113 3113 3118 3119 3120 3121 3121 3121 3121 3121 3121 3121 3121 3121 3121 3122 3122 3123 3123 3123 3123 3123 3123 3124 3124 3124 3124 3124 3124 3124 3123 3123 3123 3123 3123 3123 3123 3123 3123 3123 3123 3122 3122 3122 3122 3123 3123 3123 3123 3122 3122 3122 3121 3121 3120 3120 3119 3119 3119 3118
3116 3116 3117 3117 3117 3117 3118 3119 3120 3121 3122 3123 3124 3124 3125 3126 3126 3127 3127 3127 3126 3124 3122 3123 3126 3122 3112 3110 3115 3116 3117 3118 3119 3119 3120 3120 3119 3119 3119 3119 3119 3119 3120 3120 3120 3120 3120 3121 3121 3122 3122 3122 3122 3122 3122 3122 3122 3122 3121 3121 3121 3121 3121 3121 3121 3121 3120 3120 3120 3120 3120 3120 3120 3120 3120 3120 3120 3120 3119 3119 3118 3117 3116 3116 3115 3115
3113 3113 3114 3114 3114 3115 3116 3117 3117 3118 3119 3120 3122 3122 3124 3124 3125 3125 3125 3125 3126 3121 3118 3119 3122 3121 3114 3108 3110 3113 3114 3116 3117 3119 3119 3118 3118 3117 3117 3117 3117 3117 3117 3117 3117 3117 3118 3118 3119 3119 3119 3120 3120 3120 3120 3120 3120 3120 3120 3119 3119 3119 3119 3119 3119 3118 3118 3118 3118 3118 3118 3118 3118 3117 3117 3117 3117 3117 3116 3115 3114 3114 3113 3112 3112 3111
3110 3110 3111 3111 3112 3113 3114 3114 3115 3116 3116 3118 3119 3120 3122 3123 3123 3123 3123 3124 3124 3119 3116 3117 3118 3118 3113 3107 3108 3110 3112 3114 3116 3117 3118 3117 3117 3116 3116 3115 3115 3114 3114 3114 3114 3114 3115 3115 3116 3117 3117 3117 3117 3118 3118 3118 3118 3118 3117 3117 3116 3116 3116 3116 3116 3116 3116 3116 3116 3116 3116 3115 3115 3115 3115 3114 3114 3113 3112 3111 3110 3109 3108 3108 3107 3107
3106 3107 3108 3109 3109 3110 3111 3112 3113 3113 3114 3115 3116 3118 3120 3122 3122 3122 3121 3122 3119 3115 3114 3115 3116 3112 3106 3104 3108 3109 3110 3112 3114 3115 3116 3116 3116 3116 3115 3114 3113 3112 3112 3111 3112 3112 3112 3113 3113 3114 3114 3115 3115 3115 3116 3116 3115 3115 3115 3114 3114 3114 3114 3114 3113 3113 3113 3113 3113 3113 3113 3113 3112 3112 3111 3110 3109 3108 3107 3105 3104 3103 3103 3102 3102 3102
3104 3104 3105 3106 3106 3107 3108 3108 3110 3110 3111 3112 3113 3115 3117 3120 3122 3120 3120 3119 3116 3112 3112 3113 3114 3107 3100 3101 3105 3106 3108 3109 3110 3113 3114 3115 3115 3115 3114 3113 3111 3111 3110 3109 3109 3109 3109 3110 3110 3111 3111 3112 3112 3113 3113 3113 3113 3112 3112 3112 3112 3111 3111 3111 3110 3110 3110 3110 3110 3110 3110 3109 3109 3108 3107 3106 3104 3103 3102 3100 3099 3098 3097 3096 3096 3095
3102 3101 3101 3102 3103 3104 3105 3106 3107 3108 3109 3110 3111 3113 3113 3114 3116 3115 3115 3114 3111 3110 3110 3111 3110 3102 3096 3098 3100 3102 3105 3107 3108 3110 3111 3112 3113 3112 3112 3111 3110 3109 3109 3108 3107 3107 3107 3107 3107 3108 3109 3109 3109 3109 3109 3109 3110 3110 3110 3109 3109 3109 3108 3108 3108 3107 3107 3107 3107 3107 3106 3105 3104 3103 3102 3101 3100 3098 3097 3096 3095 3093 3092 3092 3091 3090
3099 3098 3099 3100 3100 3102 3103 3104 3106 3107 3108 3108 3109 3110 3109 3109 3111 3111 3111 3110 3111 3111 3107 3106 3103 3097 3095 3097 3097 3100 3102 3104 3106 3107 3108 3109 3109 3109 3109 3109 3109 3108 3108 3107 3106 3105 3104 3104 3105 3105 3105 3105 3105 3106 3106 3106 3107 3107 3107 3106 3106 3106 3105 3105 3104 3103 3103 3103 3103 3102 3102 3101 3099 3098 3097 3095 3094 3093 3092 3091 3090 3089 3088 3087 3086 3085
3096 3096 3097 3098 3098 3100 3101 3102 3103 3104 3105 3105 3105 3105 3106 3108 3109 3110 3110 3108 3111 3110 3102 3098 3096 3094 3094 3093 3093 3098 3100 3101 3103 3103 3104 3105 3106 3107 3108 3108 3108 3107 3106 3105 3104 3103 3102 3102 3102 3102 3102 3102 3102 3103 3103 3103 3104 3103 3103 3103 3103 3102 3102 3101 3101 3100 3100 3099 3098 3098 3097 3095 3094 3093 3091 3090 3088 3087 3086 3085 3084 3083 3082 3081 3080 3079
3093 3094 3094 3096 3097 3098 3099 3100 3100 3101 3102 3102 3102 3103 3105 3107 3108 3109 3110 3108 3110 3109 3099 3094 3092 3091 3090 3089 3089 3094 3097 3098 3100 3100 3100 3102 3103 3105 3106 3106 3106 3106 3105 3103 3102 3101 3100 3099 3099 3098 3099 3099 3099 3100 3100 3100 3100 3100 3100 3100 3099 3099 3098 3098 3097 3096 3095 3094 3093 3092 3090 3089 3088 3086 3085 3083 3082 3081 3080 3079 3077 3077 3076 3075 3074 3074
3090 3092 3093 3094 3095 3096 3097 3097 3097 3098 3099 3099 3099 3101 3103 3104 3105 3106 3107 3105 3106 3105 3097 3091 3089 3086 3084 3085 3087 3091 3093 3095 3096 3097 3098 3100 3101 3103 3104 3104 3104 3103 3102 3101 3100 3099 3097 3096 3096 3096 3096 3096 3096 3096 3096 3096 3096 3096 3096 3096 3096 3095 3095 3094 3093 3091 3090 3088 3087 3086 3085 3084 3083 3082 3081 3079 3078 3077 3076 3075 3074 3073 3072 3071 3070 3070
3088 3089 3090 3090 3092 3093 3093 3093 3093 3094 3096 3097 3098 3100 3100 3101 3101 3101 3102 3100 3099 3100 3096 3091 3088 3081 3079 3082 3085 3088 3091 3092 3093 3094 3096 3098 3099 3100 3101 3101 3100 3100 3099 3098 3097 3096 3095 3094 3093 3093 3093 3093 3093 3093 3093 3093 3092 3092 3092 3092 3092 3091 3090 3089 3087 3085 3084 3082 3082 3081 3080 3079 3079 3078 3077 3076 3075 3074 3073 3072 3071 3070 3069 3068 3067 3066
3085 3086 3086 3087 3089 3089 3088 3088 3089 3090 3092 3093 3094 3096 3096 3098 3099 3098 3097 3095 3095 3096 3094 3092 3086 3078 3077 3080 3083 3086 3088 3089 3091 3092 3094 3095 3096 3096 3097 3097 3096 3096 3096 3096 3094 3093 3091 3091 3090 3090 3090 3089 3089 3089 3089 3089 3089 3088 3088 3087 3087 3086 3084 3083 3081 3080 3079 3078 3078 3077 3077 3076 3075 3074 3073 3072 3072 3071 3070 3069 3068 3067 3066 3065 3064 3063
3081 3082 3082 3083 3083 3083 3084 3085 3087 3088 3089 3090 3090 3091 3092 3094 3095 3096 3094 3091 3091 3092 3089 3089 3084 3076 3077 3080 3081 3084 3086 3086 3088 3089 3090 3092 3092 3092 3092 3092 3093 3093 3092 3092 3090 3089 3088 3087 3087 3086 3086 3086 3086 3086 3086 3085 3085 3084 3084 3084 3083 3082 3081 3079 3078 3077 3076 3075 3075 3074 3074 3073 3072 3071 3070 3069 3068 3067 3066 3065 3064 3063 3062 3060 3059 3059
3078 3079 3079 3079 3078 3080 3082 3083 3084 3085 3086 3088 3088 3088 3089 3090 3090 3091 3089 3087 3088 3087 3084 3086 3082 3074 3075 3079 3080 3081 3083 3084 3085 3086 3087 3088 3088 3088 3088 3089 3089 3089 3088 3087 3086 3086 3085 3084 3084 3083 3083 3083 3083 3083 3082 3082 3081 3081 3081 3080 3079 3078 3077 3076 3074 3073 3073 3072 3071 3071 3070 3069 3068 3067 3066 3065 3063 3062 3061 3060 3059 3058 3057 3056 3055 3054
3075 3075 3075 3076 3076 3078 3079 3080 3081 3082 3084 3084 3084 3084 3085 3085 3086 3086 3085 3084 3084 3081 3081 3085 3080 3071 3073 3077 3077 3078 3080 3081 3083 3083 3084 3084 3084 3085 3085 3085 3085 3084 3084 3083 3082 3082 3081 3081 3081 3081 3081 3081 3080 3080 3079 3078 3078 3077 3076 3076 3074 3073 3072 3071 3070 3070 3069 3068 3067 3066 3065 3064 3063 3062 3061 3060 3059 3058 3057 3056 3055 3054 3053 3053 3052 3051
3071 3071 3072 3074 3075 3075 3075 3077 3077 3077 3079 3079 3079 3080 3080 3081 3083 3083 3082 3082 3079 3076 3079 3082 3073 3068 3073 3075 3074 3076 3077 3078 3080 3080 3081 3080 3080 3081 3081 3081 3081 3080 3079 3079 3079 3079 3079 3079 3080 3079 3079 3078 3077 3076 3075 3074 3073 3072 3072 3071 3070 3069 3068 3067 3066 3066 3065 3064 3062 3061 3060 3059 3058 3057 3056 3055 3055 3054 3053 3053 3052 3051 3050 3049 3048 3047
3066 3066 3067 3068 3069 3068 3069 3069 3069 3070 3073 3074 3074 3075 3077 3078 3078 3078 3078 3077 3074 3073 3076 3074 3066 3066 3072 3072 3070 3073 3075 3076 3077 3077 3076 3077 3076 3076 3076 3076 3076 3076 3076 3076 3077 3077 3077 3077 3077 3076 3075 3074 3073 3072 3070 3069 3068 3067 3067 3066 3065 3065 3064 3063 3062 3061 3059 3058 3057 3056 3055 3054 3054 3053 3052 3052 3051 3051 3050 3049 3048 3047 3046 3045 3043 3042
3062 3061 3061 3061 3060 3060 3061 3063 3064 3066 3068 3069 3069 3071 3072 3073 3073 3074 3072 3069 3069 3071 3070 3065 3063 3066 3069 3069 3068 3071 3073 3073 3073 3073 3073 3073 3072 3072 3072 3072 3072 3073 3073 3073 3073 3073 3073 3073 3073 3072 3071 3069 3068 3067 3066 3064 3064 3063 3063 3062 3061 3061 3059 3058 3057 3056 3054 3053 3052 3051 3051 3050 3049 3049 3048 3048 3047 3046 3045 3044 3043 3042 3041 3039 3038 3036
3057 3056 3057 3057 3056 3057 3059 3061 3062 3063 3064 3065 3066 3067 3068 3068 3068 3067 3065 3064 3068 3068 3062 3059 3063 3064 3063 3065 3067 3068 3070 3069 3069 3069 3070 3069 3068 3068 3068 3068 3069 3069 3069 3069 3068 3068 3069 3068 3068 3067 3066 3065 3064 3063 3061 3060 3060 3059 3059 3058 3057 3056 3055 3054 3052 3051 3050 3048 3048 3047 3047 3046 3045 3045 3044 3044 3043 3042 3041 3040 3038 3037 3036 3034 3032 3031
3053 3052 3053 3054 3054 3055 3057 3058 3059 3060 3060 3061 3061 3061 3062 3063 3062 3061 3060 3062 3065 3062 3056 3058 3062 3059 3058 3062 3064 3065 3066 3065 3065 3066 3066 3065 3065 3064 3064 3065 3065 3066 3065 3064 3064 3064 3064 3064 3063 3063 3062 3061 3060 3058 3057 3056 3055 3055 3055 3054 3053 3051 3050 3049 3047 3046 3045 3044 3044 3043 3043 3042 3042 3041 3040 3040 3039 3037 3036 3035 3034 3032 3030 3029 3027 3025
3049 3048 3050 3051 3051 3052 3054 3054 3055 3057 3057 3056 3056 3055 3055 3056 3056 3056 3056 3057 3058 3055 3053 3056 3056 3053 3055 3058 3059 3061 3061 3061 3062 3062 3061 3061 3061 3060 3060 3060 3060 3060 3060 3059 3059 3059 3058 3058 3058 3058 3057 3056 3055 3054 3053 3052 3051 3051 3050 3049 3048 3046 3045 3044 3043 3042 3041 3040 3040 3039 3039 3039 3038 3037 3036 3035 3034 3033 3032 3030 3028 3027 3025 3023 3022 3020
3045 3044 3046 3047 3048 3048 3049 3050 3051 3053 3052 3051 3050 3048 3048 3049 3050 3049 3049 3051 3051 3050 3050 3052 3050 3047 3051 3054 3055 3056 3057 3057 3057 3057 3056 3056 3055 3054 3054 3054 3054 3054 3053 3053 3054 3053 3053 3053 3052 3052 3051 3051 3051 3050 3049 3048 3047 3046 3045 3044 3043 3042 3040 3039 3038 3037 3036 3036 3036 3036 3035 3035 3034 3033 3032 3031 3030 3028 3027 3025 3023 3021 3020 3018 3017 3015
3041 3041 3042 3044 3044 3042 3043 3045 3046 3048 3049 3046 3040 3038 3041 3043 3042 3042 3043 3045 3046 3045 3046 3047 3043 3042 3047 3051 3051 3051 3052 3052 3051 3051 3050 3050 3049 3049 3049 3049 3049 3048 3048 3048 3048 3048 3048 3047 3047 3047 3047 3046 3046 3045 3044 3044 3042 3041 3040 3039 3038 3037 3035 3034 3033 3033 3032 3032 3032 3032 3032 3031 3030 3029 3027 3026 3025 3023 3021 3020 3018 3016 3015 3013 3012 3010
3037 3037 3039 3041 3039 3037 3039 3040 3041 3046 3045 3035 3026 3029 3035 3036 3036 3037 3039 3040 3040 3041 3041 3039 3037 3039 3044 3046 3045 3045 3046 3045 3045 3045 3045 3044 3044 3044 3044 3044 3043 3043 3044 3044 3043 3043 3043 3042 3042 3042 3042 3042 3041 3041 3040 3039 3038 3036 3036 3035 3033 3032 3031 3030 3029 3029 3028 3028 3028 3028 3027 3027 3025 3024 3022 3021 3019 3018 3016 3015 3013 3012 3010 3008 3007 3005
3033 3033 3035 3036 3035 3034 3035 3036 3038 3040 3032 3020 3018 3026 3030 3030 3031 3033 3034 3035 3036 3035 3034 3033 3034 3037 3039 3039 3039 3040 3040 3040 3039 3039 3039 3039 3039 3040 3039 3039 3039 3039 3039 3039 3038 3038 3037 3037 3037 3037 3037 3037 3036 3036 3035 3034 3033 3032 3031 3030 3028 3028 3027 3026 3026 3025 3025 3024 3024 3024 3023 3022 3020 3019 3017 3016 3014 3013 3011 3010 3008 3007 3005 3003 3002 3000
3028 3030 3031 3031 3031 3030 3031 3034 3035 3028 3018 3014 3018 3023 3024 3025 3027 3028 3028 3030 3031 3030 3029 3029 3031 3033 3034 3035 3035 3034 3034 3034 3034 3034 3034 3034 3034 3035 3035 3034 3034 3034 3034 3034 3033 3033 3032 3032 3032 3032 3032 3032 3031 3030 3029 3028 3028 3027 3026 3025 3024 3024 3023 3023 3022 3022 3021 3020 3020 3019 3018 3016 3015 3013 3012 3010 3009 3007 3006 3004 3003 3001 3000 2998 2997 2995
3024 3025 3026 3026 3027 3026 3027 3028 3024 3016 3013 3015 3017 3018 3020 3020 3022 3023 3022 3023 3026 3025 3024 3025 3026 3028 3029 3029 3029 3029 3028 3029 3029 3030 3030 3030 3030 3030 3030 3030 3030 3029 3029 3029 3029 3029 3028 3028 3027 3027 3027 3026 3025 3025 3024 3023 3023 3022 3021 3021 3020 3020 3020 3019 3018 3018 3017 3016 3015 3013 3012 3011 3009 3008 3006 3005 3004 3002 3001 2999 2998 2996 2995 2993 2992 2990
3018 3020 3021 3021 3020 3020 3019 3017 3015 3012 3011 3011 3011 3014 3016 3015 3017 3019 3017 3017 3021 3021 3018 3020 3022 3023 3023 3023 3023 3024 3024 3024 3024 3026 3026 3026 3026 3026 3026 3026 3025 3025 3025 3025 3024 3024 3024 3023 3023 3022 3022 3021 3020 3020 3019 3018 3018 3017 3017 3016 3016 3015 3015 3014 3013 3013 3012 3011 3009 3008 3007 3006 3004 3003 3002 3000 2999 2998 2996 2995 2993 2991 2990 2988 2986 2985
3013 3013 3015 3016 3014 3014 3014 3013 3014 3011 3006 3005 3008 3011 3012 3012 3014 3015 3011 3010 3016 3016 3014 3016 3017 3016 3018 3019 3019 3020 3020 3019 3020 3022 3023 3022 3021 3021 3021 3021 3021 3020 3021 3020 3020 3019 3019 3018 3018 3017 3017 3016 3016 3015 3014 3014 3013 3013 3012 3012 3011 3011 3010 3009 3008 3007 3006 3005 3004 3003 3002 3001 3000 2999 2997 2996 2994 2993 2991 2990 2988 2986 2984 2983 2981 2979
3009 3009 3011 3011 3009 3009 3009 3008 3008 3005 3000 3002 3006 3008 3009 3009 3009 3010 3008 3006 3009 3012 3011 3011 3011 3012 3013 3014 3015 3016 3016 3015 3016 3019 3018 3016 3016 3017 3016 3016 3016 3016 3016 3015 3015 3014 3014 3013 3013 3012 3012 3011 3011 3010 3010 3009 3009 3008 3008 3007 3006 3005 3004 3004 3003 3002 3001 3000 3000 2999 2998 2996 2995 2994 2992 2991 2990 2988 2986 2985 2983 2981 2979 2977 2975 2973
3004 3005 3005 3005 3003 3003 3004 3002 3001 2999 2998 3000 3002 3003 3006 3005 3005 3008 3007 3002 3003 3007 3008 3007 3008 3009 3010 3010 3011 3012 3012 3012 3013 3013 3012 3010 3011 3012 3011 3011 3012 3011 3011 3011 3010 3010 3009 3008 3008 3008 3007 3007 3006 3006 3005 3005 3005 3004 3003 3002 3001 3000 3000 2999 2998 2997 2996 2995 2995 2994 2993 2991 2990 2989 2988 2986 2985 2983 2981 2979 2977 2975 2974 2972 2969 2967
2999 3000 3000 2999 2998 2999 2999 2997 2996 2995 2996 2998 2998 2999 3003 3003 3002 3003 3001 2998 3000 3004 3004 3005 3005 3004 3005 3006 3006 3007 3008 3007 3007 3007 3006 3006 3006 3006 3006 3007 3007 3006 3006 3006 3005 3005 3004 3004 3004 3003 3003 3003 3002 3001 3001 3001 3000 2999 2998 2997 2996 2996 2995 2994 2993 2992 2991 2991 2990 2989 2987 2986 2985 2984 2982 2981 2979 2978 2976 2974 2972 2970 2968 2966 2964 2962
2994 2995 2994 2994 2995 2995 2995 2995 2994 2991 2993 2995 2995 2995 2998 2998 2996 2996 2996 2996 2998 3000 3000 3001 3001 3001 3002 3002 3002 3002 3002 3002 3001 3001 3001 3001 3001 3001 3002 3002 3001 3002 3002 3001 3001 3000 3000 2999 2999 2999 2998 2998 2997 2997 2997 2996 2995 2995 2994 2993 2992 2991 2990 2989 2988 2987 2986 2985 2984 2983 2982 2981 2980 2978 2977 2975 2974 2972 2971 2969 2966 2964 2962 2960 2958 2956
2989 2990 2989 2990 2991 2992 2993 2994 2991 2986 2988 2993 2992 2990 2992 2993 2991 2992 2994 2994 2995 2996 2997 2997 2998 2998 2998 2998 2998 2998 2997 2997 2997 2996 2996 2996 2996 2997 2997 2996 2996 2996 2996 2996 2996 2995 2995 2994 2994 2994 2994 2993 2993 2992 2992 2991 2991 2990 2989 2988 2987 2986 2985 2984 2983 2982 2981 2980 2979 2978 2977 2976 2974 2973 2972 2970 2968 2967 2965 2963 2961 2959 2956 2954 2952 2950
2984 2985 2984 2986 2988 2988 2986 2986 2983 2981 2985 2989 2988 2986 2987 2989 2989 2990 2991 2991 2992 2993 2994 2994 2995 2995 2994 2994 2994 2993 2993 2993 2993 2992 2992 2992 2992 2992 2992 2991 2991 2991 2991 2991 2991 2991 2990 2989 2989 2989 2989 2988 2988 2988 2987 2986 2986 2985 2984 2983 2982 2981 2980 2979 2978 2977 2976 2975 2974 2973 2972 2970 2969 2967 2966 2964 2963 2961 2959 2957 2955 2953 2951 2949 2947 2945
2981 2981 2982 2982 2983 2981 2979 2979 2978 2979 2982 2983 2983 2983 2985 2986 2987 2988 2988 2988 2990 2990 2990 2991 2991 2990 2990 2989 2989 2988 2988 2989 2989 2989 2989 2988 2988 2988 2987 2987 2987 2986 2986 2987 2986 2986 2985 2985 2984 2984 2984 2984 2984 2983 2982 2982 2981 2980 2979 2978 2977 2976 2975 2974 2973 2972 2971 2970 2969 2967 2966 2965 2963 2961 2960 2958 2957 2955 2954 2952 2950 2948 2946 2943 2942 2940
2978 2979 2979 2978 2978 2977 2975 2975 2975 2976 2978 2978 2979 2981 2983 2982 2983 2984 2984 2985 2986 2986 2986 2987 2986 2986 2985 2984 2983 2984 2984 2984 2984 2984 2984 2984 2983 2983 2983 2983 2982 2982 2982 2982 2981 2981 2980 2980 2980 2979 2979 2979 2979 2978 2977 2976 2975 2975 2974 2973 2972 2971 2970 2969 2968 2967 2966 2964 2963 2962 2961 2959 2958 2956 2954 2953 2951 2950 2948 2946 2944 2943 2940 2938 2937 2935
2975 2976 2975 2974 2974 2973 2971 2970 2971 2972 2974 2975 2976 2978 2979 2980 2980 2981 2981 2982 2982 2982 2981 2981 2981 2981 2980 2979 2979 2980 2980 2980 2980 2979 2979 2979 2979 2979 2978 2978 2978 2978 2977 2977 2976 2976 2975 2975 2974 2974 2974 2974 2973 2973 2972 2971 2970 2970 2969 2968 2967 2966 2965 2964 2963 2961 2960 2959 2958 2956 2955 2954 2952 2950 2949 2947 2946 2944 2942 2940 2939 2937 2935 2933 2931 2930
2971 2972 2970 2968 2969 2968 2966 2966 2968 2969 2970 2972 2973 2974 2976 2977 2977 2977 2977 2977 2977 2977 2976 2977 2976 2976 2976 2975 2975 2975 2975 2975 2975 2975 2975 2975 2974 2974 2974 2973 2973 2973 2973 2972 2971 2971 2970 2970 2970 2969 2969 2969 2968 2967 2966 2966 2965 2964 2963 2962 2962 2960 2959 2958 2957 2956 2955 2953 2952 2951 2949 2948 2946 2945 2943 2942 2940 2939 2937 2935 2933 2932 2930 2928 2926 2924
2967 2966 2965 2964 2964 2963 2961 2962 2964 2966 2967 2969 2970 2971 2973 2973 2973 2973 2973 2973 2973 2972 2972 2972 2972 2971 2971 2971 2971 2971 2970 2970 2970 2970 2970 2970 2969 2969 2969 2968 2968 2968 2967 2967 2967 2965 2965 2965 2965 2964 2964 2964 2963 2962 2961 2960 2960 2959 2958 2957 2956 2955 2954 2952 2951 2950 2949 2947 2946 2944 2943 2942 2940 2939 2938 2936 2935 2933 2932 2930 2928 2927 2925 2923 2920 2918
2961 2961 2961 2959 2957 2956 2957 2960 2963 2965 2965 2967 2968 2968 2968 2969 2968 2968 2968 2968 2968 2968 2968 2967 2967 2967 2966 2967 2967 2966 2965 2965 2966 2965 2965 2965 2965 2964 2964 2963 2963 2963 2962 2962 2961 2960 2960 2960 2959 2959 2959 2958 2958 2957 2956 2955 2954 2953 2952 2951 2950 2949 2948 2946 2945 2944 2942 2941 2940 2938 2937 2936 2935 2933 2932 2931 2930 2928 2927 2925 2923 2921 2919 2918 2915 2913
2957 2957 2957 2955 2952 2953 2956 2960 2961 2962 2962 2963 2964 2964 2963 2964 2963 2963 2963 2964 2964 2963 2963 2963 2962 2962 2962 2962 2962 2960 2959 2960 2961 2960 2959 2960 2960 2959 2959 2958 2958 2957 2957 2956 2955 2955 2955 2954 2954 2954 2953 2953 2952 2951 2950 2949 2948 2947 2946 2945 2944 2943 2942 2940 2939 2938 2937 2935 2934 2932 2931 2930 2929 2927 2926 2925 2924 2923 2922 2921 2919 2916 2914 2912 2910 2908